Location: Ballingbuur
(53.0000°N, 5.7667°E)
Time: 05:28:28
(UTC+00:00)

NOAA 6 - Pass Details

Date: 29 November 2020
Orbit: 773 x 786 km, 98.7° (Epoch: 23 January)

Event Time Altitude Azimuth Distance (km) Brightness Sun altitude
Rises 06:02:38 0° 14° (NNE) 3,266 7.2 -11.7°
Reaches altitude 10° 06:04:58 10° 14° (NNE) 2,334 6.4 -11.4°
Maximum altitude 06:10:06 79° 288° (WNW) 794 4.0 -10.7°
Drops below altitude 10° 06:15:12 10° 203° (SSW) 2,316 6.5 -9.9°
Sets 06:17:30 0° 202° (SSW) 3,240 7.3 -9.6°
